USA 159 (DSP 21)

Last updated on Fri Dec 19 2025 00:02:48 GMT+0000 (Coordinated Universal Time)

1 26880U 01033A 25352.47283411 -.00000284 00000+0 00000+0 0 9991 2 26880 12.6157 17.6910 0000224 255.6120 294.9726 1.00279797 31152
UTC large
Height (km)
Speed (km/s)
/
Latitude / Longitude
Inclination (degrees)
Orbital Period (minutes)
Azimuth
Elevation
Range (km)
Doppler Factor

Next 0 passes for location: London (51.5072 / 0.1276)

Sorry there are no passes over London.